Regional Weather Roundup
Issued by NWS

Home | Current Version | Previous Version | Graphics & Text | Print | Product List | Glossary On
Versions: 1 2 3 4 5 6 7 8 9 10 11 12 13 14 15 16 17 18 19 20 21 22 23 24 25 26 27 28 29 30 31 32 33 34 35 36 37 38 39 40 41 42 43 44 45 46 47 48 49 50
491
ASUS43 KMPX 302001
RWRMN
WEATHER ROUNDUP FOR MINNESOTA
NATIONAL WEATHER SERVICE TWIN CITIES/CHANHASSEN MN
300 PM CDT FRI SEP 30 2016


NOTE: "FAIR" INDICATES FEW OR NO CLOUDS BELOW 12,000 FEET WITH NO
SIGNIFICANT WEATHER AND/OR OBSTRUCTIONS TO VISIBILITY. N/A MEANS
CURRENT SKY AND/OR WEATHER CONDITIONS ARE NOT AVAILABLE.

MNZ060>063-068>070-302100-
   Twin Cities Metro

CITY           SKY/WX    TMP DP  RH WIND       PRES   REMARKS
TWIN CITIES    SUNNY     70  51  51 NE9G20    30.26F
ST PAUL        SUNNY     70  53  54 N10       30.26F
CRYSTAL        SUNNY     70  49  47 NE8       30.25F
BLAINE         SUNNY     72  52  49 NE8       30.26
LAKEVILLE      SUNNY     70  50  49 NE10G16   30.25F
EDEN PRAIRIE   SUNNY     70  51  51 N7        30.25F
LAKEVILLE      SUNNY     70  50  49 NE10G16   30.25F
SOUTH ST PAUL  SUNNY     70  51  50 NE7       30.26F
LAKE ELMO      FAIR      70  52  52 NE8       30.27F
$$
MNZ001>005-007-008-013>017-022>024-027-028-302100-
   Northwest Minnesota

CITY           SKY/WX    TMP DP  RH WIND       PRES   REMARKS
BEMIDJI        CLOUDY    58  52  80 SE8       30.32F
HALLOCK        MOSUNNY   68  54  60 S15       30.23F
ROSEAU         MOSUNNY   59  52  77 SE9       30.31S
WARROAD        CLOUDY    55  52  88 S12       30.33S
THIEF RVR FALL MOSUNNY   68  50  52 S13       30.27F
CROOKSTON      PTSUNNY   68  50  52 S10       30.25F
FOSSTON        SUNNY     68  46  45 S12G17    30.28F
DETROIT LAKES  SUNNY     63  52  67 SE13G18   30.29F
MOORHEAD       PTSUNNY   70  48  46 S14G22    30.24F
PARK RAPIDS    MOSUNNY   65  51  60 E7        30.29F
MAHNOMEN       FAIR      66  48  53 S10G18    30.26F
$$
MNZ006-009>011-018-025>026-302100-
   North Central Minnesota

CITY           SKY/WX    TMP DP  RH WIND       PRES   REMARKS
BAUDETTE       CLOUDY    54  50  86 SE12      30.35F
FLAG ISLAND    MOSUNNY   55  52  88 S14       30.32S
INTL FALLS     CLOUDY    55  51  86 S6        30.36F
WASKISH        CLOUDY    59  54  82 SE7       30.33F
BIG FORK       SUNNY     63  52  67 CALM      30.34F
GRAND RAPIDS   SUNNY     65  50  58 SE6       30.35F
ORR            SUNNY     64  48  55 CALM      30.33F
COOK           SUNNY     64  50  59 CALM      30.35F
WALKER         FAIR      56  50  82 E5        30.32F
$$
MNZ012-019>021-037-302100-
   Northeast Minnesota

CITY           SKY/WX    TMP DP  RH WIND       PRES   REMARKS
DULUTH         CLOUDY    55  52  89 E10       30.36F
ELY            SUNNY     66  45  45 SE7       30.36F
HIBBING        SUNNY     65  49  56 SE7       30.34F
EVELETH        SUNNY     65  45  47 SE8       30.37S
DULUTH HARBOR  CLOUDY    55  54  94 NE13      30.38F
TWO HARBORS    CLOUDY    59  54  82 E9        30.36F
SILVER BAY     CLOUDY    57  54  88 E9        30.37F
GRAND MARAIS     N/A     60  55  83 E9        30.38F
G MARAIS ARPRT SUNNY     64  48  55 NE7       30.40F
$$
MNZ029>031-032-039>041-046>048-054>057-064-302100-
   West Central Minnesota

CITY           SKY/WX    TMP DP  RH WIND       PRES   REMARKS
FERGUS FALLS   SUNNY     66  52  59 SE13G20   30.27F
MORRIS         SUNNY     72  54  53 SE8       30.24F
ALEXANDRIA     CLOUDY    66  52  60 SE13      30.29F
ELBOW LAKE     FAIR      65  53  65 SE9       30.28F
WADENA         CLOUDY    63  54  72 SE7       30.29F
GLENWOOD       SUNNY     66  54  63 E9        30.28F
BENSON         SUNNY     72  46  40 S10       30.25
ORTONVILLE     CLOUDY    68  52  56 SE10      30.24F
MADISON        SUNNY     72  50  46 E16       30.24F
WILLMAR        FAIR      70  48  46 SE13      30.27F
$$
MNZ033>034-036-042>043-049>051-058-059-302100-
   Central Minnesota

CITY           SKY/WX    TMP DP  RH WIND       PRES   REMARKS
ST CLOUD       SUNNY     69  49  48 VRB7      30.28F
SAUK CENTRE    FAIR      64  53  67 E8        30.29F
PAYNESVILLE    SUNNY     67  49  53 E7        30.29F
AITKIN           N/A     70  48  46 E5        30.31F HAZE
PINE RIVER     SUNNY     63  54  72 SE7       30.34F
BRAINERD       SUNNY     64  51  62 E5        30.32F
STAPLES        SUNNY     64  52  63 E5        30.30F
LONG PRAIRIE   FAIR      63  52  67 NE9       30.30F
LITTLE FALLS   SUNNY     64  50  59 NE5       30.30F
LITCHFIELD     SUNNY     70  52  52 E7        30.28F
BUFFALO        SUNNY     68  49  50 N8        30.28F
MAPLE LAKE     SUNNY     70  53  55 NE8       30.28F
HUTCHINSON     MOSUNNY   70  51  50 NE8       30.28F
$$
MNZ037-044-045-052-053-302100-
   East Central Minnesota

CITY           SKY/WX    TMP DP  RH WIND       PRES   REMARKS
PRINCETON      SUNNY     72  52  49 NE5       30.29F
MORA           SUNNY     68  50  52 NE5       30.32F
CAMBRIDGE      SUNNY     70  54  56 N6        30.27F
MOOSE LAKE     SUNNY     61  50  67 NE8       30.32F
HINCKLEY       FAIR      70  52  52 N10       30.30F
CLOQUET        CLOUDY    55  48  76 E9        30.36F
MCGREGOR       SUNNY     68  50  52 E12       30.33F
$$
MNZ071>073-080-081-089-090-097-098-302100-
   Southwest Minnesota

CITY           SKY/WX    TMP DP  RH WIND       PRES   REMARKS
MONTEVIDEO     SUNNY     73  50  43 S10G16    30.26F
GRANITE FALLS  SUNNY     71  51  49 E5        30.26F
CANBY          MOSUNNY   70  47  42 SE9G17    30.24F
MARSHALL       SUNNY     70  49  47 E8        30.24F
REDWOOD FALLS  SUNNY     72  42  34 E9        30.24F
OLIVIA         SUNNY     70  45  40 E9G16     30.25F
PIPESTONE      CLOUDY    72  39  30 SE8       30.23F
WINDOM         SUNNY     70  45  40 NE10      30.25F
WORTHINGTON    SUNNY     69  48  47 NE13G20   30.24F
JACKSON        SUNNY     72  43  35 NE8       30.24F
TRACY          SUNNY     71  47  42 SE8       30.25F
$$
MNZ065>067-074>077-082>085-091>093-302100-
   South Central Minnesota

CITY           SKY/WX    TMP DP  RH WIND       PRES   REMARKS
MANKATO        SUNNY     69  52  54 NE8       30.24F
NEW ULM        SUNNY     70  46  43 NE12      30.24F
ST JAMES       SUNNY     72  46  40 NE12      30.25F
FAIRMONT       SUNNY     73  47  39 NE8       30.23F
GLENCOE        SUNNY     69  53  56 E10       30.26F HAZE
FARIBAULT      PTSUNNY   72  52  49 N8        30.25F
OWATONNA       PTSUNNY   70  52  52 NE9G16    30.24F
WASECA         CLOUDY    70  52  52 N9        30.25F
ALBERT LEA     CLOUDY    72  54  53 E8        30.22F
$$
MNZ078>079-086>088-094>096-302100-
   Southeast Minnesota

CITY           SKY/WX    TMP DP  RH WIND       PRES   REMARKS
ROCHESTER      MOSUNNY   69  55  60 E9        30.24F
RED WING       SUNNY     73  48  40 E10       30.23F
STANTON        SUNNY     73  48  41 E8        30.23F
DODGE CENTER   MOSUNNY   73  48  40 E7        30.24F
WINONA         MOSUNNY   72  54  53 N3        30.22F
AUSTIN         PTSUNNY   70  52  52 NE9       30.22F
PRESTON        CLOUDY    67  55  63 NE10      30.22F
$$
ABBREVIATIONS USED IN REMARKS
   TC - TEMPERATURES IN CELSIUS
  WCI - WIND CHILL INDEX
   HX - HEAT INDEX
  VSB - VISIBILITY
$$




USA.gov is the U.S. government's official web portal to all federal, state and local government web resources and services.